User: anonymous   Login
Location: Unspecified
(0.0000°N, 0.0000°E)
Time: 21:46:55
(UTC+00:00)
Language:

NEE 01 PEGASUS - Orbit

View from above orbital plane
View from above orbital plane
View from above satellite
View from above satellite

Ground track
Ground track

The orbit data is extracted from the following two-line orbital elements,

1 39151U 13018B   18316.50642167  .00000188  00000-0  31919-4 0  9996
2 39151  97.9756  49.5337 0017055 184.0227 176.0850 14.79963102299455
Epoch (UTC): 12 November 2018 12:09:14
Eccentricity: 0.0017055
inclination: 97.9756°
perigee height: 617 km
apogee height: 641 km
right ascension of ascending node: 49.5337°
argument of perigee: 184.0227°
revolutions per day: 14.79963102
mean anomaly at epoch: 176.0850°
orbit number at epoch: 29945

The dashed part of the orbit path shows where the satellite is in the earth's shadow,  

DLR